STARLINK-32720 (62451 NORAD) Tracking and Keplerian Element Data

This shows tracking and keplerian element data for the satellite.

Feedback or suggestion? Click here.




ElementValue
Catalog62451
NameSTARLINK-32720
Epoch Orbit642
Epoch Day35.13594271
Epoch Year2025
RAAN35.3856
Inclination53.1625
Eccentricity0.0001603
Argument of Perigee91.5581
Mean Anonmoly268.5608
Mean Motion15.39624927
Decay Rate1.879E-05
L11 62451U 24251V 25035.13594271 .00001879 00000+0 56947-4 0 9998
L22 62451 53.1625 35.3856 0001603 91.5581 268.5608 15.39624927 6426



Live tracking and technical data element details for STARLINK-32720 (NORAD 62451). STARLINK-32720 can be tracked NOW for your location showing map with azimuth and elevation plus other details from your city location.







IsCatalogInMostPopularTable: catalog: 62451, numindb: 16
Update: records affected: 1



GetName: 62451 STARLINK-32720

Hit Count: updated at: Sat, 24 May 2025 16:19:44 GMT